Terminal Aerodrome Forecast
Issued by NWS Pittsburgh, PA

Current Version | Previous Version | Text Only | Print | Product List | Glossary Off
Versions: 1 2 3 4 5 6 7 8 9 10 11 12 13 14 15 16 17 18 19 20 21 22 23 24 25 26 27 28 29 30 31

496
FTUS41 KPBZ 281317 AAA
TAFPIT
TAF AMD
KPIT 281317Z 2813/2918 13005KT 5SM BR BKN250
     FM281430 15008KT P6SM OVC015
     FM281900 20008KT P6SM VCTS BKN035CB
     FM282300 21008KT 5SM -SHRA VCTS OVC035CB
     FM290300 20008KT 5SM -SHRA OVC035
     FM290700 25010KT P6SM VCSH BKN025
     FM291200 27010KT P6SM BKN040=

USA.gov is the U.S. government's official web portal to all federal, state and local government web resources and services.